Location: Mana�l
(15.0115°N, 12.5022°W)
Time: 11:24:33
(UTC+00:00)

Cosmos 2344 - Pass Details

Date: 07 June 2020
Orbit: 1250 x 2992 km, 63.3° (Epoch: 05 July)

Event Time Altitude Azimuth Distance (km) Brightness Sun altitude
Exits shadow 03:10:18 46° 104° (ESE) 1,712 4.2 -38.8°
Drops below altitude 10° 03:16:57 10° 42° (NE) 3,225 6.4 -37.6°
Sets 03:19:43 0° 36° (NE) 4,192 7.2 -37.2°
